Wind_Speed
22 21 20 20 20 19 19 20 20 21 22 24 26 27 28 30 31 32 32 33 32 31 30 29 28 28 27 26 26 26 25 25 24 23 23 22 22 22 21 20 20 19 18 18 18 18 18 19 19 18 18 17 17 17 17 17 17 17 17 17 17 17 18 18 18 18 19 19 19 19 19 19 18 18 18 18 17 17 17 17 17 17 17 16 16 16
25 23 22 22 22 21 21 21 21 21 21 22 24 25 26 28 29 30 32 32 32 31 30 29 28 28 27 27 26 26 26 25 25 24 23 23 23 22 22 21 20 19 19 18 18 18 19 19 19 19 18 18 17 17 17 17 17 17 17 17 18 18 18 18 19 19 19 19 19 19 19 19 19 19 18 18 18 18 18 18 18 17 17 17 17 17
27 26 25 25 24 24 23 22 22 22 22 22 23 24 25 26 27 29 30 31 31 31 30 29 28 28 27 27 26 26 26 25 25 24 24 23 23 23 22 21 20 20 19 19 19 19 19 19 19 19 18 18 18 17 17 17 17 17 18 18 18 19 19 19 19 19 19 19 19 19 19 19 19 19 19 19 19 18 18 18 18 18 18 17 17 17
29 28 27 27 27 26 25 24 24 24 24 23 23 23 24 25 26 27 29 30 30 30 30 29 28 27 27 27 26 26 26 25 25 24 24 24 24 23 22 22 21 20 20 20 20 19 19 19 19 19 18 18 18 18 17 18 18 18 18 19 19 19 19 20 20 20 20 20 20 19 19 19 19 19 19 19 19 19 19 19 19 18 18 18 18 18
31 30 29 29 28 28 27 26 26 25 25 25 24 24 24 25 25 26 28 29 29 29 29 29 28 28 27 27 27 26 26 25 25 25 24 24 24 23 23 22 21 21 21 20 20 20 19 19 19 19 19 18 18 18 18 18 18 19 19 19 20 20 20 20 20 20 20 20 20 20 20 20 20 20 20 20 19 19 19 19 19 19 19 19 19 19
31 30 30 29 29 29 28 28 27 27 27 26 26 25 25 25 25 26 27 28 28 28 28 28 28 28 28 27 27 26 26 25 25 25 25 25 24 24 23 22 22 22 21 21 21 20 20 19 19 19 19 19 18 18 18 18 19 19 19 20 20 20 20 20 20 20 20 20 20 20 20 20 20 20 20 20 20 20 20 19 19 19 19 19 19 19
32 32 31 31 30 30 29 29 28 28 28 27 27 26 25 25 25 26 27 27 28 28 28 28 28 28 28 27 27 26 26 25 25 25 25 25 25 24 23 23 22 22 22 22 21 20 20 19 19 19 19 19 19 19 19 19 19 20 20 20 21 21 21 20 20 20 20 20 20 20 20 20 20 20 20 20 20 20 20 20 20 20 20 20 20 20
33 33 33 32 31 31 30 29 29 29 28 28 27 27 26 26 26 26 27 27 27 28 28 28 28 28 27 27 27 26 25 25 25 25 25 25 25 24 24 23 23 23 22 22 21 20 20 19 19 19 19 19 19 19 19 20 20 20 21 21 21 21 21 21 21 21 21 21 21 21 21 21 21 21 21 20 20 20 20 20 20 20 20 21 21 21
33 34 34 33 32 31 31 30 30 29 28 28 28 27 27 26 26 27 27 27 28 28 28 28 28 27 27 27 26 26 25 25 25 25 25 25 25 24 24 24 23 23 23 22 21 21 20 20 20 19 20 20 20 20 20 20 21 21 21 21 21 21 21 21 21 21 21 21 21 21 21 21 21 21 21 21 21 21 21 20 20 21 21 21 22 22
33 33 33 33 33 32 31 31 30 29 28 28 28 27 27 27 27 27 28 28 28 28 28 28 28 27 27 26 26 26 25 25 25 25 25 25 25 25 24 24 24 23 23 22 21 21 21 20 20 20 20 20 20 20 21 21 21 21 21 22 22 21 21 21 21 21 21 22 22 22 22 22 21 21 21 21 21 21 21 21 21 21 22 22 22 23
33 34 33 33 33 32 32 31 30 29 29 28 28 28 28 28 28 28 29 29 29 28 28 28 27 27 26 26 26 25 25 25 25 25 25 25 25 25 25 24 24 23 23 22 22 21 21 21 21 20 20 20 21 21 21 21 21 22 22 22 22 22 22 22 22 22 22 22 22 22 22 22 22 22 22 22 22 22 22 22 22 22 23 23 23 23
34 34 34 34 33 33 33 32 31 30 29 29 29 30 30 30 30 29 30 29 29 28 28 28 27 26 26 25 25 25 26 26 26 26 26 26 25 25 25 24 24 23 23 22 22 22 21 21 21 21 21 21 21 21 21 21 22 22 22 22 22 22 22 22 22 22 22 23 23 23 23 23 23 23 23 23 23 23 23 23 23 23 23 24 24 24
34 34 34 34 34 34 34 33 32 31 31 31 31 31 31 30 30 30 30 29 29 29 28 28 27 26 26 25 26 26 26 26 26 26 26 26 25 25 24 24 24 23 23 23 23 22 22 22 21 21 21 21 21 21 21 22 22 22 22 22 22 22 22 22 23 23 23 23 23 23 23 23 23 23 23 23 23 23 23 23 24 24 24 24 24 24
33 33 33 34 34 34 35 35 34 34 33 32 32 31 30 29 29 29 29 29 29 29 28 28 28 27 26 26 27 27 27 27 27 27 26 26 25 25 24 24 24 23 23 23 23 23 22 22 22 21 21 21 21 21 22 22 22 22 22 22 22 22 23 23 23 23 23 23 23 23 23 24 24 24 24 24 24 24 24 24 24 24 25 25 25 24
33 33 33 34 35 35 36 36 36 35 34 32 31 30 29 28 29 29 29 29 29 29 29 29 29 28 28 27 27 28 28 28 27 27 27 26 25 24 24 24 24 23 23 23 23 23 22 22 22 22 21 21 21 22 22 22 22 22 22 22 23 23 23 23 23 23 24 24 24 24 24 24 24 24 24 24 24 24 24 24 25 25 25 25 24 24
33 33 34 35 35 35 36 35 35 35 33 32 31 30 29 29 29 29 29 29 29 29 29 30 30 29 29 28 28 28 28 28 27 27 26 26 25 24 24 24 24 24 23 23 23 23 22 22 22 22 22 22 22 22 22 22 22 22 22 22 22 23 23 23 24 24 24 24 24 24 24 24 24 25 25 25 25 25 25 25 25 25 24 24 24 23
34 34 34 35 35 35 35 35 34 34 33 32 31 30 30 30 29 28 28 28 29 29 30 31 31 30 30 28 28 28 28 27 27 26 26 25 25 25 25 25 24 24 24 23 23 23 23 23 22 22 22 22 22 22 22 22 22 22 22 22 22 23 23 23 24 24 24 24 24 24 24 25 25 25 25 25 25 25 25 25 25 24 24 24 23 23
35 35 34 34 34 34 34 34 34 34 33 32 32 31 30 29 29 28 28 28 29 30 30 31 31 31 31 30 28 27 27 26 25 25 25 25 25 25 25 25 25 24 24 23 23 23 23 23 23 23 22 22 22 22 22 22 21 21 21 21 22 23 23 24 24 24 24 24 24 24 25 25 25 25 25 25 25 25 25 24 24 24 23 23 23 23
36 35 34 34 33 33 33 34 34 34 33 33 32 31 30 29 29 28 29 29 29 30 30 30 30 30 30 29 28 27 25 25 24 24 24 25 25 25 25 25 25 24 24 23 23 23 23 23 23 23 23 22 22 22 22 22 21 21 21 21 22 22 23 23 23 24 24 24 24 24 25 25 25 25 25 25 25 24 24 24 23 23 23 23 22 22
34 34 34 33 33 33 33 34 34 33 33 32 31 30 30 29 29 29 29 29 29 29 29 29 29 29 28 28 27 26 25 24 24 24 24 24 25 25 25 24 24 24 23 23 23 23 24 24 23 23 23 23 23 22 22 22 21 21 21 21 22 22 23 23 23 23 24 24 24 24 24 25 25 25 25 24 24 24 23 23 23 23 22 22 22 22
34 34 33 33 32 32 33 33 33 32 31 31 30 30 29 29 29 29 29 29 28 28 28 28 28 27 26 27 27 26 25 25 25 25 24 24 24 24 24 24 24 24 23 23 23 23 24 24 24 23 23 23 23 23 22 22 21 21 21 21 22 22 22 23 23 23 23 24 24 24 24 24 24 24 24 23 23 23 23 23 22 22 22 22 22 22
34 34 34 33 33 33 32 32 31 30 30 30 30 29 29 29 29 29 29 28 27 27 26 26 25 25 24 26 26 26 25 26 25 25 24 24 24 24 24 24 24 24 23 23 23 23 24 24 24 24 23 23 23 23 22 22 21 21 21 21 21 22 22 23 23 23 23 23 23 24 24 24 24 23 23 23 22 22 22 22 22 22 22 22 22 23
34 34 34 33 33 32 31 30 29 29 29 29 29 29 29 28 28 27 27 25 24 23 23 22 22 22 23 24 25 26 26 26 26 25 25 25 25 24 24 24 24 24 24 23 23 23 24 24 24 24 23 24 23 23 23 22 21 21 21 21 21 22 22 22 23 23 23 23 23 23 23 23 23 22 22 22 22 22 22 22 21 22 22 22 23 23
34 34 34 34 33 32 31 29 29 29 29 29 29 29 28 27 27 26 24 23 21 20 19 19 20 22 24 24 25 26 26 26 26 26 25 25 25 25 25 25 25 25 24 23 23 23 24 24 24 24 24 24 24 24 23 22 21 21 21 21 21 22 22 22 22 23 22 22 22 22 22 22 22 22 22 22 22 21 21 21 21 22 22 22 23 23
33 34 34 33 33 32 31 30 30 30 30 29 29 29 28 27 26 25 24 23 21 20 20 21 22 24 25 25 25 26 26 26 26 26 25 25 24 24 25 25 25 25 24 23 23 23 24 24 24 24 24 25 25 24 23 22 21 21 21 21 21 21 21 22 22 22 21 21 21 21 21 21 21 21 21 21 21 21 21 21 21 22 22 22 23 23
33 33 33 33 33 33 32 32 31 31 31 30 30 29 29 28 27 26 25 24 23 23 23 23 24 25 25 25 26 26 26 26 26 25 25 24 24 24 25 25 25 25 24 24 23 24 24 24 24 24 24 25 25 24 23 22 21 21 21 20 20 21 21 21 21 20 20 20 20 20 20 20 20 20 20 21 21 21 21 21 21 21 21 22 22 22
32 32 32 33 33 33 33 33 33 32 32 32 31 31 30 29 28 27 27 26 25 25 25 25 25 26 26 27 27 27 26 26 25 25 24 23 24 24 24 24 25 25 24 24 24 24 24 24 25 24 24 24 24 24 23 22 22 21 20 20 20 19 19 19 19 19 19 19 19 19 19 19 20 20 20 20 20 21 21 20 20 20 20 21 21 22
32 32 32 33 33 34 34 34 34 33 33 33 33 32 32 31 30 29 29 28 27 26 26 27 26 26 27 28 28 27 26 26 25 25 24 23 24 24 24 24 24 25 24 24 23 23 23 24 24 24 24 24 23 23 23 22 22 21 20 19 18 18 18 18 17 17 17 18 18 18 19 19 19 20 20 20 20 20 20 19 19 19 20 20 21 22
32 32 32 33 34 34 34 35 34 34 34 34 34 33 33 32 31 31 30 28 27 27 27 27 27 27 27 27 27 26 26 27 26 25 24 24 24 24 23 23 24 24 24 23 23 23 23 24 24 24 23 23 22 22 22 23 23 21 19 17 17 16 16 16 16 16 17 17 18 18 19 19 19 19 19 19 19 18 18 18 18 18 19 20 21 22
32 32 32 33 34 34 35 35 35 34 34 34 34 34 34 33 32 31 30 29 28 28 28 28 28 27 27 26 26 27 28 28 27 25 24 24 24 24 22 22 23 24 23 22 21 22 23 23 23 23 22 22 21 22 22 23 22 20 18 16 15 15 15 15 16 16 17 17 18 18 18 18 18 18 18 18 17 17 17 17 17 18 19 20 21 22
32 32 33 33 34 35 35 35 35 35 35 35 35 35 35 34 33 32 31 30 30 30 29 29 28 27 27 27 28 29 30 29 27 26 25 24 24 23 21 21 22 23 22 21 20 21 21 22 22 22 21 21 21 21 22 22 21 19 17 16 15 15 15 15 16 16 17 17 17 17 17 17 17 17 17 16 16 16 16 16 17 18 19 20 21 22
32 32 32 33 34 35 35 36 36 36 36 36 36 36 36 35 34 34 33 33 32 31 30 30 29 28 28 28 29 30 30 28 26 25 24 24 23 22 21 21 21 22 22 21 20 19 18 18 20 21 21 21 21 21 21 21 20 19 17 16 15 15 15 15 16 16 16 16 16 16 16 16 16 15 15 15 15 15 15 16 16 17 19 20 20 21
32 31 31 32 33 35 36 36 36 37 37 37 37 37 37 36 36 35 35 34 33 32 31 31 30 29 29 29 29 29 28 27 26 25 24 23 23 22 22 21 21 21 21 21 21 20 19 20 20 21 21 21 21 21 21 20 19 18 17 16 16 15 15 15 15 16 15 15 15 15 15 14 14 14 14 14 14 14 15 15 16 17 18 19 20 20
31 31 31 32 33 34 36 36 37 37 38 38 38 38 38 37 37 36 36 35 34 33 32 32 31 30 29 29 28 28 27 27 26 26 25 23 23 22 22 21 21 21 21 21 21 20 21 21 21 21 21 21 21 21 20 20 19 18 17 17 16 15 15 14 14 15 14 14 14 14 13 13 13 13 13 13 14 14 14 15 15 16 17 18 19 20
31 31 31 32 33 34 36 36 37 37 38 38 38 38 38 38 37 37 36 36 35 34 33 32 31 30 29 28 28 28 27 27 27 26 25 24 23 22 22 22 22 21 21 21 21 20 20 21 21 20 20 21 21 21 20 19 18 18 17 17 16 15 14 14 14 14 14 13 13 13 13 13 13 13 13 13 14 14 14 14 15 15 16 17 18 19
31 31 32 33 34 35 36 37 37 37 37 37 37 37 37 37 37 36 36 35 34 33 32 31 30 29 28 27 27 27 27 27 27 26 25 24 22 21 21 21 21 21 21 21 21 21 20 20 20 20 20 20 20 20 20 19 18 18 18 17 16 15 14 14 13 13 13 13 13 12 12 13 13 13 13 14 14 14 14 14 15 15 16 17 18 19
32 33 33 34 34 35 36 37 37 37 37 36 36 36 36 36 36 35 34 34 33 32 31 30 29 28 27 26 26 26 26 26 26 26 25 24 22 21 21 21 21 21 21 21 21 20 20 19 19 20 20 20 20 20 19 18 18 18 18 17 16 15 15 14 14 13 13 13 13 12 12 13 13 14 14 14 14 15 15 15 15 15 16 17 18 18
33 34 34 34 35 35 36 36 37 36 36 35 35 35 34 34 34 33 32 31 30 30 29 28 27 27 26 26 26 26 26 26 26 26 25 24 23 22 21 21 21 22 21 21 21 20 20 19 19 20 20 20 20 20 19 18 18 18 18 17 16 16 15 15 14 14 13 13 13 13 13 14 14 15 15 15 15 15 15 15 15 16 16 17 18 19
35 35 35 35 36 36 36 37 37 36 35 34 34 33 33 32 32 31 30 29 28 27 27 26 26 26 26 26 25 26 26 26 26 26 25 24 23 22 22 21 21 21 21 21 20 20 20 20 20 20 20 20 20 19 18 18 18 18 17 17 17 16 16 15 15 14 14 14 14 15 15 15 15 15 16 16 16 16 16 16 16 16 17 18 19 19
36 36 36 36 36 36 36 36 36 35 34 33 32 32 31 31 30 29 28 26 25 25 25 24 24 25 25 25 24 25 25 25 25 25 24 24 23 22 22 21 21 21 20 20 20 20 20 20 20 20 20 20 20 19 19 19 19 18 18 17 17 17 16 15 15 15 15 15 15 16 16 16 16 16 16 17 17 17 17 17 17 17 18 19 20 20
37 37 37 36 36 36 35 35 35 34 33 32 32 31 31 30 30 28 27 25 24 24 24 24 24 24 24 24 23 23 23 24 24 24 24 23 23 22 22 21 21 20 20 20 20 20 20 20 20 20 20 20 20 20 19 19 19 18 18 18 18 17 16 16 16 16 16 16 16 16 16 16 17 17 17 18 18 18 18 18 18 18 19 19 20 21
37 37 37 36 36 35 35 34 34 33 33 32 32 31 31 30 29 28 26 25 25 25 25 25 24 24 24 24 24 23 23 23 24 23 23 23 22 22 21 21 21 20 20 20 20 20 20 20 19 19 19 19 19 19 19 19 18 18 18 18 18 17 17 17 16 16 16 16 16 16 17 17 18 18 18 19 19 19 19 19 19 19 19 20 21 21
38 37 36 35 35 35 34 34 33 33 33 32 32 31 31 30 29 27 26 26 25 25 25 25 25 24 24 24 24 24 24 24 24 24 23 23 22 22 21 21 20 20 20 20 20 20 20 19 19 19 19 18 18 19 19 18 18 18 18 18 18 18 19 18 16 15 16 16 16 16 17 18 18 19 19 20 20 20 20 19 19 19 19 20 21 21
37 36 35 35 34 34 34 33 33 33 33 33 32 31 30 29 28 27 26 26 25 25 25 25 24 23 23 24 24 25 24 25 24 24 23 22 22 21 21 20 20 20 20 20 19 20 19 20 20 19 18 18 18 18 19 18 18 18 18 18 18 19 19 18 17 16 16 16 17 17 18 18 19 20 20 21 21 20 20 20 19 19 19 20 20 21
36 35 35 34 34 33 33 33 33 33 33 32 32 31 30 29 28 27 26 26 25 25 25 24 23 23 24 24 24 25 25 25 24 24 23 22 21 21 20 20 20 20 20 20 20 20 20 20 20 19 19 19 19 19 19 19 19 19 18 18 18 18 18 17 17 16 17 17 18 18 18 19 19 20 21 21 21 20 20 19 19 19 19 19 20 21
36 36 35 35 34 34 34 33 33 32 32 32 31 30 30 29 28 27 26 26 26 25 25 24 23 23 24 24 24 24 25 25 24 23 23 22 21 20 20 20 20 20 20 20 20 20 20 20 20 20 20 20 21 21 21 20 20 19 19 18 18 18 18 18 17 17 18 19 19 19 19 19 19 20 20 21 20 20 20 20 19 19 19 19 20 20
37 36 36 35 35 34 34 33 32 32 32 31 31 30 30 29 28 27 27 26 26 25 25 24 23 23 24 24 24 24 24 24 24 23 23 22 21 21 21 21 21 21 21 20 20 20 20 21 21 21 21 21 22 22 21 20 20 19 19 18 18 18 19 19 18 18 19 19 19 19 19 19 19 19 20 20 20 20 20 20 19 19 19 19 20 20
38 37 36 35 35 34 33 33 32 32 32 31 31 30 30 29 28 28 28 27 26 26 26 25 24 24 24 24 24 24 24 23 23 23 23 23 22 22 22 22 21 21 21 21 21 21 21 22 22 22 22 22 22 22 22 20 20 19 19 18 18 19 19 20 19 19 19 19 19 18 18 18 18 18 19 20 21 21 21 20 19 19 18 19 19 19
38 37 36 35 35 34 33 33 33 32 32 31 31 30 30 29 28 28 28 27 27 27 27 26 26 25 25 25 24 23 23 23 23 23 23 23 23 22 22 22 21 21 21 21 21 22 22 22 22 23 22 22 22 22 21 20 19 18 18 18 18 19 19 19 19 18 18 18 17 17 17 17 17 17 18 19 21 22 21 20 19 18 18 18 18 18
38 37 36 35 35 34 34 34 33 32 32 31 31 30 30 29 28 27 27 27 27 27 27 27 26 26 26 26 25 24 24 23 23 23 23 23 23 22 22 21 21 21 21 21 21 22 22 22 22 22 22 21 21 20 20 19 18 17 18 18 18 18 18 18 17 17 17 16 16 16 16 16 16 16 17 19 20 22 22 22 20 18 17 17 17 18
37 36 36 35 34 34 34 33 33 32 32 31 31 30 30 29 28 28 27 27 27 27 27 27 26 26 26 26 25 24 24 24 24 24 24 23 23 22 21 21 20 20 21 21 21 21 21 22 22 22 21 21 20 19 18 17 16 16 17 17 16 16 16 16 16 16 16 15 15 15 15 15 15 16 17 18 21 23 24 23 21 19 18 17 18 18
Wind_Direction
246 247 248 249 248 248 249 251 252 252 251 250 249 247 245 244 244 243 244 244 244 244 243 243 243 243 244 244 245 246 247 247 248 249 250 250 250 250 250 250 250 250 250 249 247 245 245 245 246 248 251 254 257 261 265 269 272 275 279 281 284 286 288 289 290 291 292 293 293 293 292 292 292 292 291 290 290 290 289 289 290 290 290 290 290 290
244 245 245 248 249 249 251 253 255 255 256 255 253 250 247 245 244 243 243 244 244 244 244 244 243 243 243 243 243 244 245 246 247 248 248 249 249 249 250 251 251 251 250 249 247 245 245 245 247 249 252 255 259 263 266 270 273 277 279 282 284 286 287 289 290 291 292 292 292 292 292 292 291 291 290 290 290 289 289 289 289 290 290 290 290 290
244 244 245 248 250 251 253 255 257 259 259 259 257 253 249 247 245 243 243 244 244 244 245 244 244 243 242 241 242 242 243 244 246 247 247 248 248 249 250 250 251 251 250 248 246 245 244 245 247 250 253 257 260 264 268 271 274 277 280 282 284 286 287 289 290 291 291 291 291 291 291 291 290 290 290 290 290 289 289 289 289 289 289 290 290 289
247 247 248 251 253 254 255 257 259 260 261 260 258 254 250 246 244 243 243 243 244 244 244 244 244 243 241 240 240 240 242 243 244 245 246 247 247 248 249 250 251 251 250 248 246 245 245 246 248 251 255 258 262 266 269 272 275 278 280 282 284 286 287 289 289 290 290 290 290 290 290 289 289 289 289 289 289 288 288 288 288 288 288 288 288 288
250 250 252 253 254 255 256 257 258 259 260 259 257 253 249 245 242 241 241 242 242 243 243 243 243 242 241 240 239 239 240 241 242 244 245 246 247 248 249 250 250 250 249 248 246 245 245 247 249 253 256 260 263 266 269 273 275 278 280 282 284 285 287 287 288 288 289 289 288 288 288 288 288 288 288 288 288 287 287 287 287 287 287 287 287 287
254 255 256 256 256 256 257 257 257 257 257 257 255 252 248 244 241 239 239 240 240 241 241 241 242 241 241 240 239 238 238 239 241 242 244 245 247 248 249 249 250 250 249 248 247 246 246 248 251 254 257 261 264 267 270 273 275 278 280 282 283 284 285 286 286 286 286 286 286 286 286 287 287 287 286 286 286 286 285 285 285 285 285 285 285 285
256 256 257 257 257 257 257 256 255 255 255 255 253 251 247 243 240 239 238 238 239 239 240 240 240 240 240 240 239 239 238 238 239 241 243 245 246 248 249 249 250 249 249 248 247 247 248 249 252 255 258 262 265 268 271 273 275 277 279 281 282 283 284 284 284 284 284 284 284 285 285 285 285 285 285 285 284 284 284 284 284 284 284 284 284 284
254 255 255 255 255 256 255 255 254 254 254 253 252 250 247 243 240 239 238 238 239 239 239 240 240 240 240 240 240 240 239 239 239 240 242 244 246 248 248 249 249 249 248 248 248 249 249 251 253 256 259 262 265 268 271 273 275 277 279 280 281 282 282 282 282 282 283 283 283 284 284 284 284 284 284 284 283 283 283 283 283 283 284 284 284 284
253 254 255 255 255 255 254 254 254 253 252 251 250 249 247 245 242 240 240 240 240 240 240 240 240 241 241 241 241 241 241 240 240 240 242 244 245 247 248 248 248 248 248 248 249 250 251 253 255 257 260 263 266 269 271 274 275 277 279 280 280 280 281 281 281 281 282 282 283 283 284 284 284 284 284 283 283 283 283 283 283 284 284 284 285 285
257 256 256 256 256 255 254 254 254 252 251 251 250 248 247 246 245 243 242 242 242 242 242 242 242 242 242 242 242 242 242 242 241 242 242 244 245 246 247 248 248 248 248 249 250 251 252 254 256 258 261 264 267 270 272 274 276 277 278 279 280 280 280 280 281 281 282 282 283 283 284 284 284 284 284 284 284 284 284 284 285 285 285 285 286 286
258 258 257 256 255 255 254 253 253 252 251 250 248 246 245 244 244 244 244 244 244 244 244 244 244 244 243 243 243 243 243 243 243 243 243 244 245 245 246 247 247 247 248 249 250 252 254 255 257 260 262 265 268 270 272 274 276 277 278 279 279 279 280 280 281 281 282 282 283 283 284 284 284 285 285 285 285 285 286 286 286 286 286 286 286 287
255 255 255 254 254 253 253 252 251 250 249 247 245 243 243 242 242 243 244 246 247 247 248 248 247 246 245 245 245 245 245 245 244 244 243 243 244 245 246 246 247 247 249 250 251 253 255 257 259 261 264 266 269 271 273 275 276 277 278 278 279 279 280 280 280 281 281 282 283 283 284 284 285 285 285 286 286 286 287 287 287 287 287 287 287 287
252 252 251 251 251 251 251 250 249 247 245 244 243 242 242 242 243 244 245 247 248 250 251 251 250 249 247 246 246 246 246 246 246 245 244 244 243 244 245 246 247 248 249 250 252 253 256 258 260 262 265 268 270 272 274 275 276 277 278 278 278 279 279 279 280 280 281 282 282 283 283 284 285 285 286 286 286 287 287 287 287 287 287 287 288 288
251 250 250 250 250 249 249 249 248 246 244 243 243 244 245 245 245 247 248 249 250 250 251 252 252 250 249 247 247 246 246 246 246 246 245 244 244 243 244 245 246 247 248 250 252 254 256 259 261 264 266 269 271 273 274 275 276 277 277 278 278 279 279 279 279 280 280 281 282 282 283 284 284 285 285 286 286 287 287 287 287 287 287 288 288 289
251 249 248 247 248 248 248 248 248 248 247 246 246 246 246 247 247 248 249 250 250 251 251 251 251 250 249 248 247 247 247 247 247 247 246 246 245 244 244 245 246 246 248 250 253 255 257 260 263 265 268 270 271 273 274 275 276 276 277 277 278 278 278 278 279 279 280 280 281 282 283 283 284 285 285 285 286 286 286 287 287 287 288 288 289 289
252 249 247 247 247 247 247 248 249 249 249 249 248 247 247 247 248 250 251 251 252 252 251 251 251 250 249 249 248 248 248 247 247 247 247 247 247 246 245 246 247 248 249 251 254 257 259 261 264 267 269 271 272 274 274 275 276 276 277 277 277 277 277 278 278 279 279 280 281 281 282 283 283 284 284 285 285 286 286 286 287 287 288 288 289 289
252 249 248 247 248 248 248 250 251 251 251 250 250 249 249 249 251 252 253 253 253 252 251 252 251 250 250 249 248 249 249 249 248 248 248 248 248 247 247 248 249 250 251 253 256 259 261 263 265 268 270 272 273 274 275 275 276 276 276 277 276 276 277 277 277 278 279 279 280 281 281 282 283 283 284 285 285 286 286 286 287 287 288 288 288 288
252 250 248 248 248 249 249 250 251 252 251 251 250 250 251 251 252 253 254 253 252 252 253 254 253 253 253 252 251 250 251 251 250 249 248 248 248 248 248 249 251 253 254 256 259 261 263 265 268 270 272 273 274 275 276 277 277 277 277 276 276 276 276 276 277 277 278 279 279 280 281 281 282 283 284 284 285 285 286 286 286 287 287 288 288 288
251 250 249 249 250 251 251 251 251 252 251 251 251 251 252 252 253 254 254 254 253 253 254 255 256 257 258 257 256 254 254 253 252 250 248 248 249 250 251 251 253 255 257 259 261 264 266 268 270 272 274 275 276 278 279 279 279 279 278 277 277 276 276 276 277 277 278 278 279 279 280 281 282 283 283 284 284 285 285 285 286 286 287 287 287 288
251 251 250 251 252 252 251 251 252 252 252 252 253 253 253 255 256 256 257 257 257 256 256 256 257 258 259 259 258 256 255 253 251 249 248 248 249 250 252 253 255 257 259 262 264 267 269 271 273 275 277 279 280 281 282 283 282 282 281 279 278 278 277 277 277 278 278 278 279 279 280 281 281 282 283 283 284 284 284 285 285 286 286 287 287 287
251 252 254 254 253 252 252 253 253 253 253 254 254 254 255 256 257 258 259 260 260 259 258 258 259 260 259 258 257 255 254 251 249 249 248 248 248 250 252 254 256 259 261 264 267 270 272 274 276 278 280 281 283 284 284 285 284 284 283 281 280 279 279 278 278 278 278 278 279 279 280 280 281 281 282 283 283 283 284 284 285 285 286 286 287 288
251 252 253 253 254 254 254 254 255 255 255 254 254 254 255 256 258 259 261 263 263 263 263 263 263 262 259 256 254 253 252 249 248 248 248 248 249 251 253 256 258 260 263 266 268 271 273 275 277 279 281 282 283 284 285 285 285 284 283 282 281 280 279 279 278 278 278 278 279 279 279 280 280 281 281 282 282 282 283 283 284 285 285 286 287 288
251 252 253 253 254 254 255 255 255 254 254 254 255 255 257 258 260 262 265 266 268 269 270 269 266 261 256 253 251 249 248 247 246 246 247 248 250 252 255 258 260 262 264 267 269 271 272 274 277 279 280 281 282 283 283 284 284 284 283 282 281 280 280 279 279 279 278 278 278 278 278 279 279 280 280 281 281 281 282 283 283 284 285 286 288 289
254 253 253 253 253 254 254 253 252 252 252 253 255 256 257 258 259 261 262 264 265 265 264 262 258 254 250 248 247 245 244 244 244 244 245 247 250 254 256 259 261 264 266 268 269 270 272 274 276 278 279 280 281 282 282 283 283 283 282 281 280 280 280 279 279 279 278 278 278 277 277 277 278 279 279 279 280 280 281 282 283 284 286 287 289 290
256 255 254 253 253 252 252 251 251 250 251 252 253 254 254 254 255 256 256 256 255 254 253 250 248 246 245 245 243 242 242 242 242 243 244 247 250 253 256 259 262 265 267 268 269 271 272 273 275 278 279 280 281 282 282 283 282 282 281 280 280 280 279 279 278 278 277 277 276 276 276 276 276 277 277 278 278 279 281 282 284 285 287 289 291 293
256 255 254 253 252 251 251 250 250 250 250 251 251 251 252 252 252 252 251 250 249 247 246 244 243 244 245 244 243 242 241 241 242 242 244 246 249 252 255 259 263 265 266 268 269 271 272 274 275 277 279 280 281 282 283 283 282 280 280 280 280 279 278 277 276 276 275 275 274 274 274 274 274 274 275 276 277 279 281 283 285 287 290 291 292 294
254 254 253 252 251 251 250 250 250 250 250 251 251 251 251 251 250 248 247 247 247 246 244 242 241 242 243 243 243 243 241 241 242 243 244 246 248 250 253 258 262 264 265 266 268 270 271 273 275 276 278 279 281 282 282 281 280 279 280 280 279 278 276 275 274 273 272 272 271 271 271 271 271 272 273 275 277 279 282 284 287 289 290 291 292 293
252 252 251 250 250 250 250 250 250 250 250 250 250 251 251 250 248 247 248 249 249 248 245 243 243 242 242 243 244 244 243 243 243 244 245 246 247 249 253 257 261 262 263 264 267 269 270 271 273 274 276 277 279 280 280 280 279 279 279 279 277 274 272 271 270 269 269 269 269 269 269 269 270 271 272 274 277 279 282 284 286 288 289 290 291 293
249 249 248 248 248 248 249 249 249 249 249 249 250 250 251 251 250 250 251 252 250 248 247 247 246 245 245 246 247 246 245 245 244 245 245 246 247 250 253 256 258 259 260 261 264 267 267 269 271 272 273 275 276 277 277 278 278 279 279 276 272 269 267 267 267 267 267 267 267 267 268 269 270 271 273 275 277 279 281 284 286 287 288 289 291 293
246 246 246 246 246 246 247 247 247 247 247 248 249 250 251 252 252 252 253 252 250 248 248 248 247 246 246 245 244 244 245 245 244 244 245 245 247 251 255 255 256 257 257 257 258 260 263 267 269 271 272 272 272 273 274 275 277 277 276 272 267 265 265 265 265 265 265 266 266 267 268 269 270 271 273 274 276 278 280 282 284 285 286 288 290 291
246 245 244 244 244 244 245 245 245 245 245 246 247 248 250 250 251 251 251 249 248 247 247 247 247 246 245 242 239 240 244 246 246 245 246 247 249 253 255 256 256 257 257 256 253 253 258 264 267 268 269 269 268 269 270 272 273 273 271 268 265 264 265 266 266 265 265 265 265 266 267 268 269 270 272 273 275 277 279 280 281 282 283 285 287 289
249 248 246 244 243 243 243 243 243 243 243 243 245 246 247 248 249 249 249 248 248 247 246 247 247 246 246 245 244 245 249 251 250 249 250 249 251 253 255 256 255 256 257 258 255 253 253 259 264 266 266 265 265 266 267 268 269 269 268 266 265 265 266 265 265 264 263 263 263 264 264 265 266 267 269 271 272 274 275 276 277 279 280 283 286 288
250 249 247 245 243 243 243 243 242 242 242 242 243 244 246 247 247 248 248 248 248 248 247 247 247 247 247 248 249 251 253 253 253 252 252 251 251 252 253 254 254 254 256 257 257 256 255 257 261 265 265 265 266 266 267 267 267 267 267 267 267 266 265 263 262 261 260 260 260 260 260 261 262 263 265 267 268 271 272 274 276 278 280 283 286 289
248 247 245 243 242 242 242 243 243 242 242 242 243 243 244 245 246 247 248 248 249 249 249 248 248 248 248 249 249 250 250 251 252 252 252 251 251 251 253 253 253 254 254 254 256 257 257 258 259 261 263 266 267 267 267 267 267 267 268 268 268 267 264 261 259 258 258 257 256 256 256 257 259 261 263 266 268 270 272 274 276 278 280 283 286 289
246 245 243 241 240 240 241 242 242 242 243 243 243 243 244 245 246 246 247 248 249 250 250 250 250 250 249 249 249 248 247 248 250 252 252 251 251 252 254 254 254 254 254 254 255 256 257 258 259 260 261 263 265 266 266 266 267 268 269 269 268 267 263 260 257 257 257 257 257 256 257 258 261 263 266 268 270 271 272 273 275 277 280 282 286 289
244 243 242 240 239 239 240 241 241 242 242 243 243 243 244 245 246 247 247 248 249 250 251 251 250 249 247 247 247 248 248 249 251 252 253 253 252 252 253 253 254 255 254 255 256 257 258 258 260 260 261 260 260 261 263 264 266 267 268 269 269 267 264 260 258 258 258 259 260 260 262 264 266 267 269 270 270 271 272 273 275 277 280 283 286 289
242 241 241 240 240 240 240 241 242 242 243 243 244 244 244 245 246 247 247 248 249 250 250 249 248 245 243 242 242 243 245 247 250 251 253 253 253 252 251 252 253 253 253 254 255 257 258 259 259 259 259 258 258 258 259 261 263 264 265 266 267 266 265 263 262 262 263 264 266 267 268 270 271 272 272 272 272 272 273 274 276 278 280 283 286 289
239 239 240 240 240 240 241 241 243 244 244 245 245 245 245 245 246 247 247 248 248 248 247 246 243 241 239 238 237 237 239 242 245 248 250 252 252 251 250 250 251 252 252 253 255 257 258 258 258 258 258 259 259 260 261 261 261 262 263 264 265 265 265 266 267 269 270 273 275 276 277 277 277 277 277 277 277 277 278 279 280 281 282 284 286 289
237 238 239 240 240 241 241 242 244 246 247 247 247 246 246 247 247 248 247 247 246 244 243 241 239 237 236 236 236 236 238 240 243 245 248 249 250 250 249 248 249 250 252 253 254 256 257 257 257 258 258 260 261 261 262 262 261 261 262 263 264 264 264 267 270 273 276 279 281 283 283 282 282 282 282 283 283 284 285 285 285 285 286 288 289 291
236 237 238 240 241 242 243 245 246 248 248 248 247 247 247 247 247 246 245 243 241 239 237 235 233 232 232 233 234 236 238 241 243 245 247 248 249 249 249 248 248 249 250 252 253 254 255 255 256 257 258 260 261 261 261 261 261 261 261 260 258 257 260 264 268 273 277 279 281 283 283 283 283 284 286 287 288 289 290 290 290 290 291 292 294 295
236 237 238 240 241 243 245 246 247 247 248 247 247 247 246 246 246 245 242 238 234 231 229 227 226 227 228 229 231 233 236 240 242 244 246 247 247 248 248 247 247 248 249 250 251 252 252 253 254 254 256 258 260 261 261 261 261 261 261 260 260 261 262 263 266 271 274 276 278 280 281 283 284 286 288 289 290 291 292 292 293 293 293 294 295 297
235 236 238 239 240 241 243 244 244 245 246 246 246 246 246 246 246 244 240 234 229 225 223 221 221 222 223 225 227 231 234 237 240 242 244 245 246 246 247 247 248 248 249 249 250 250 251 252 253 255 256 258 260 261 262 263 262 262 263 264 267 270 270 269 271 274 276 277 279 281 283 285 288 289 290 291 292 292 293 293 294 294 294 295 295 296
235 236 238 239 240 241 241 241 241 242 243 244 244 245 245 246 246 244 240 234 228 224 221 220 219 219 220 222 224 228 231 234 237 240 241 243 244 245 247 248 249 250 251 251 252 253 253 254 255 257 259 261 262 263 264 265 264 264 265 267 270 272 273 275 278 279 280 281 283 284 287 289 290 291 292 292 292 293 294 294 294 293 293 293 294 296
235 236 237 238 239 239 239 239 239 240 241 241 241 242 243 244 243 242 239 235 231 226 222 220 219 219 219 221 223 225 228 231 234 237 239 242 244 245 247 249 250 252 253 253 254 256 257 259 260 261 262 264 264 265 267 267 267 267 268 269 271 273 276 280 283 284 283 284 286 287 289 290 291 291 291 292 292 292 293 293 292 291 291 292 293 295
236 236 236 236 236 236 236 236 237 238 239 239 240 239 240 240 240 239 236 233 231 228 224 221 219 219 220 222 223 225 226 228 231 235 238 241 243 245 247 249 251 252 253 254 254 256 258 261 263 265 266 266 266 266 267 269 270 271 272 273 274 277 279 283 285 286 286 287 288 288 289 290 290 290 290 290 291 291 291 291 291 291 291 291 292 294
234 233 233 234 234 234 235 235 236 236 237 237 237 237 237 237 236 235 233 230 229 227 225 224 223 222 223 225 226 226 227 228 230 233 236 239 242 244 246 248 249 250 250 251 253 254 256 259 261 263 264 266 266 267 268 270 272 274 275 277 279 281 283 285 286 287 288 289 290 290 290 291 291 291 290 291 291 291 290 290 291 291 291 292 293 294
232 231 232 232 233 233 234 234 234 234 234 234 234 234 234 233 231 229 228 227 226 225 225 225 226 226 227 228 228 228 229 229 230 232 234 237 239 241 243 245 245 246 246 247 248 251 253 255 257 259 260 262 263 265 267 270 273 276 278 281 283 284 285 286 287 288 289 290 290 291 292 293 292 291 290 291 290 290 290 290 291 292 292 293 294 296
231 231 231 231 231 231 231 231 231 231 231 231 232 232 231 230 227 225 223 223 223 223 224 224 225 226 227 229 229 230 231 232 234 235 235 236 237 238 239 239 240 240 241 242 244 246 248 251 253 254 256 257 260 263 267 270 273 277 280 282 284 285 285 286 287 288 289 289 290 292 292 292 291 289 290 290 289 289 290 291 292 293 294 295 297 299
231 231 230 230 229 229 228 228 228 229 229 229 229 229 228 227 225 223 221 221 220 221 222 222 223 224 225 226 227 229 231 233 236 238 239 238 238 237 236 234 234 235 236 238 240 243 246 248 250 251 253 255 258 262 267 271 274 277 279 280 281 282 283 284 286 287 288 289 290 291 291 291 290 289 290 290 291 292 293 294 295 295 297 299 301 303
231 231 230 229 228 228 227 227 227 227 227 227 226 226 225 223 222 221 220 220 220 221 222 223 223 223 223 224 224 226 227 230 233 236 239 239 238 236 233 231 230 229 231 233 236 239 242 245 247 250 253 255 258 262 266 271 274 276 276 276 276 278 280 282 284 285 287 288 288 289 289 289 290 291 292 292 293 295 297 297 297 299 301 303 305 307
230 230 229 228 228 228 227 227 227 226 226 226 225 224 223 221 219 218 218 218 219 221 223 223 223 222 222 223 223 224 226 228 230 233 237 238 237 235 233 230 229 227 227 229 232 235 237 240 243 246 250 255 260 264 265 267 269 270 270 270 272 274 276 280 282 285 286 287 288 289 289 291 293 295 296 295 295 297 299 300 301 303 305 308 309 309
Height
1479 1480 1481 1482 1482 1482 1481 1482 1482 1482 1482 1482 1483 1483 1484 1485 1486 1486 1487 1488 1488 1489 1490 1491 1492 1493 1493 1494 1495 1495 1496 1496 1496 1497 1497 1498 1498 1498 1499 1499 1500 1500 1501 1501 1501 1502 1502 1502 1503 1503 1504 1504 1504 1504 1505 1505 1505 1505 1504 1504 1504 1504 1504 1504 1504 1503 1503 1503 1503 1503 1502 1502 1502 1502 1502 1502 1502 1501 1501 1501 1501 1500 1500 1500 1500 1500
1477 1478 1479 1480 1480 1480 1480 1480 1480 1480 1480 1480 1481 1481 1482 1483 1483 1484 1485 1486 1486 1487 1488 1489 1490 1491 1491 1492 1493 1493 1494 1494 1495 1495 1496 1496 1496 1496 1497 1497 1498 1498 1499 1499 1500 1501 1501 1501 1501 1502 1502 1502 1503 1503 1503 1503 1503 1503 1503 1503 1503 1503 1502 1502 1502 1502 1502 1501 1501 1501 1501 1501 1501 1501 1501 1501 1500 1500 1500 1499 1499 1499 1499 1499 1499 1499
1476 1476 1477 1477 1478 1478 1478 1478 1478 1478 1478 1479 1479 1480 1480 1481 1481 1482 1483 1483 1484 1485 1486 1487 1488 1489 1490 1491 1491 1491 1492 1493 1493 1493 1494 1494 1495 1495 1495 1496 1496 1497 1497 1498 1499 1499 1500 1500 1500 1500 1501 1501 1501 1501 1501 1501 1501 1501 1501 1501 1501 1501 1501 1501 1501 1501 1500 1500 1500 1500 1500 1500 1499 1499 1499 1499 1499 1498 1498 1498 1498 1498 1497 1497 1497 1497
1473 1474 1474 1475 1476 1476 1476 1476 1476 1476 1476 1476 1477 1477 1478 1478 1479 1480 1481 1481 1482 1483 1484 1485 1486 1486 1487 1488 1489 1490 1490 1491 1491 1492 1492 1492 1493 1493 1493 1494 1495 1495 1496 1496 1497 1498 1498 1498 1499 1499 1499 1499 1499 1500 1500 1500 1500 1500 1500 1500 1500 1500 1500 1499 1499 1499 1499 1499 1498 1498 1498 1498 1498 1498 1498 1497 1497 1497 1497 1496 1496 1496 1496 1496 1496 1496
1471 1471 1472 1473 1473 1474 1474 1474 1474 1474 1474 1475 1475 1475 1476 1476 1477 1478 1479 1479 1480 1481 1482 1483 1484 1485 1485 1486 1487 1488 1489 1489 1490 1490 1490 1491 1491 1491 1492 1492 1493 1493 1494 1495 1496 1496 1496 1497 1497 1497 1497 1497 1498 1498 1498 1498 1498 1498 1498 1498 1498 1498 1498 1498 1498 1497 1497 1497 1497 1497 1497 1496 1496 1496 1496 1496 1496 1496 1495 1495 1495 1495 1495 1495 1495 1495
1468 1469 1470 1470 1471 1471 1472 1472 1472 1472 1472 1472 1473 1473 1474 1475 1475 1476 1476 1477 1478 1479 1480 1481 1482 1482 1483 1484 1485 1486 1487 1487 1488 1488 1488 1489 1489 1489 1490 1491 1491 1492 1493 1493 1494 1495 1495 1495 1495 1496 1496 1496 1496 1496 1496 1497 1497 1497 1497 1497 1497 1497 1496 1496 1496 1496 1496 1496 1496 1495 1495 1495 1495 1495 1494 1494 1494 1494 1494 1493 1493 1493 1493 1493 1493 1493
1466 1466 1467 1468 1468 1469 1469 1470 1470 1470 1470 1470 1471 1471 1472 1472 1473 1474 1475 1475 1476 1477 1478 1479 1480 1480 1481 1482 1483 1484 1485 1486 1486 1486 1486 1487 1487 1487 1488 1489 1490 1490 1491 1492 1492 1493 1493 1493 1494 1494 1494 1494 1495 1495 1495 1495 1495 1496 1496 1496 1495 1495 1495 1495 1495 1494 1494 1494 1494 1494 1493 1493 1493 1493 1493 1492 1492 1492 1492 1492 1492 1491 1491 1491 1491 1491
1464 1464 1465 1465 1466 1466 1467 1467 1467 1468 1468 1468 1469 1469 1470 1471 1471 1472 1473 1474 1474 1475 1476 1477 1478 1478 1479 1480 1481 1482 1483 1483 1484 1484 1485 1485 1485 1486 1486 1487 1488 1489 1489 1490 1491 1491 1491 1492 1492 1492 1492 1493 1493 1493 1493 1494 1494 1494 1494 1494 1494 1494 1493 1493 1493 1493 1492 1492 1492 1492 1491 1491 1491 1491 1491 1491 1491 1491 1490 1490 1490 1490 1490 1490 1490 1489
1461 1461 1462 1463 1463 1464 1464 1465 1465 1466 1466 1466 1466 1467 1468 1469 1469 1470 1471 1472 1472 1473 1474 1475 1476 1476 1477 1478 1479 1480 1481 1481 1482 1482 1483 1483 1483 1484 1485 1486 1486 1487 1487 1488 1489 1489 1490 1490 1490 1491 1491 1491 1491 1492 1492 1492 1492 1492 1492 1492 1492 1492 1491 1491 1491 1491 1491 1490 1490 1490 1490 1490 1489 1489 1489 1489 1489 1489 1489 1488 1488 1488 1488 1488 1488 1487
1458 1459 1459 1460 1461 1461 1462 1462 1463 1463 1464 1464 1465 1466 1466 1467 1467 1468 1469 1470 1471 1471 1472 1473 1474 1475 1476 1476 1477 1478 1479 1479 1480 1481 1481 1481 1482 1482 1483 1484 1484 1485 1486 1486 1487 1487 1488 1488 1489 1489 1489 1490 1490 1490 1490 1491 1491 1491 1491 1490 1490 1490 1490 1489 1489 1489 1489 1488 1488 1488 1488 1488 1487 1487 1487 1487 1487 1487 1487 1486 1486 1486 1486 1486 1486 1486
1456 1457 1457 1458 1458 1459 1460 1460 1461 1461 1462 1463 1463 1464 1464 1465 1465 1466 1467 1468 1469 1470 1471 1471 1472 1473 1474 1475 1475 1476 1476 1477 1478 1478 1479 1479 1480 1481 1481 1482 1482 1483 1484 1484 1485 1486 1486 1486 1487 1487 1488 1488 1488 1488 1489 1489 1489 1489 1488 1488 1488 1488 1487 1487 1487 1487 1486 1486 1486 1486 1486 1486 1486 1485 1485 1485 1485 1485 1485 1485 1485 1484 1484 1484 1484 1484
1454 1455 1456 1456 1456 1456 1457 1458 1458 1459 1460 1461 1461 1461 1462 1462 1463 1464 1465 1466 1467 1468 1469 1470 1471 1471 1472 1473 1473 1474 1475 1475 1476 1476 1477 1477 1478 1479 1479 1480 1481 1481 1482 1482 1483 1484 1484 1485 1485 1486 1486 1486 1486 1487 1487 1487 1487 1486 1486 1486 1486 1486 1486 1485 1485 1485 1484 1484 1484 1484 1484 1484 1484 1483 1483 1483 1483 1483 1483 1482 1482 1482 1482 1482 1481 1481
1452 1453 1453 1454 1454 1454 1455 1455 1456 1457 1457 1458 1458 1458 1459 1460 1462 1463 1463 1464 1466 1466 1467 1468 1469 1470 1471 1471 1471 1472 1472 1473 1473 1474 1475 1476 1476 1477 1477 1478 1479 1479 1480 1480 1481 1481 1482 1483 1483 1484 1484 1485 1485 1485 1485 1485 1485 1484 1484 1484 1484 1483 1483 1483 1483 1482 1482 1482 1482 1482 1482 1482 1481 1481 1481 1481 1481 1481 1481 1481 1480 1480 1480 1479 1479 1479
1450 1451 1451 1451 1451 1452 1452 1452 1453 1454 1454 1455 1456 1457 1458 1460 1461 1461 1462 1463 1464 1465 1466 1466 1466 1467 1468 1469 1469 1470 1470 1471 1471 1472 1472 1473 1474 1475 1476 1476 1477 1477 1478 1478 1479 1480 1481 1481 1481 1482 1482 1483 1483 1483 1483 1482 1482 1482 1482 1481 1481 1481 1481 1481 1481 1480 1480 1480 1480 1480 1480 1480 1480 1480 1479 1479 1479 1479 1478 1478 1478 1478 1477 1477 1477 1476
1448 1448 1448 1449 1449 1449 1450 1450 1450 1451 1452 1453 1455 1456 1458 1459 1459 1460 1461 1461 1462 1463 1464 1464 1465 1465 1466 1466 1467 1467 1468 1468 1469 1470 1470 1471 1472 1473 1474 1474 1475 1476 1476 1476 1477 1478 1479 1479 1479 1480 1480 1481 1481 1481 1481 1480 1480 1480 1480 1479 1479 1479 1479 1478 1478 1478 1478 1478 1478 1478 1478 1478 1477 1477 1477 1477 1477 1476 1476 1476 1476 1475 1475 1475 1475 1474
1446 1446 1446 1446 1446 1447 1447 1448 1448 1449 1451 1452 1454 1455 1456 1456 1457 1458 1459 1460 1461 1461 1462 1462 1462 1463 1464 1464 1465 1465 1466 1466 1467 1468 1468 1469 1470 1471 1472 1472 1472 1473 1474 1475 1475 1476 1477 1477 1477 1478 1478 1478 1478 1478 1478 1478 1477 1477 1477 1477 1477 1476 1476 1476 1476 1476 1476 1476 1476 1476 1476 1476 1476 1475 1475 1475 1475 1474 1474 1474 1473 1473 1473 1472 1472 1472
1444 1444 1444 1444 1445 1445 1446 1446 1447 1448 1449 1451 1451 1452 1453 1454 1455 1456 1457 1458 1459 1459 1459 1460 1460 1460 1461 1462 1462 1463 1463 1464 1465 1466 1467 1467 1468 1469 1470 1470 1470 1471 1472 1473 1473 1474 1475 1475 1475 1476 1476 1476 1476 1476 1476 1476 1475 1475 1475 1475 1475 1474 1474 1474 1474 1474 1474 1474 1474 1474 1474 1473 1473 1473 1473 1472 1472 1472 1472 1471 1471 1471 1471 1470 1470 1470
1442 1442 1442 1442 1442 1443 1444 1444 1445 1446 1447 1448 1449 1450 1451 1452 1454 1455 1456 1456 1456 1457 1457 1457 1457 1458 1458 1459 1460 1461 1461 1462 1463 1464 1465 1465 1466 1466 1467 1468 1468 1469 1470 1471 1471 1472 1472 1472 1473 1473 1474 1474 1474 1474 1473 1473 1473 1473 1473 1472 1472 1472 1472 1472 1472 1472 1472 1472 1471 1471 1471 1471 1471 1471 1471 1470 1470 1470 1469 1469 1469 1468 1468 1468 1468 1467
1439 1439 1440 1440 1440 1441 1441 1442 1442 1443 1445 1446 1447 1448 1449 1450 1451 1452 1453 1454 1454 1455 1455 1455 1455 1456 1456 1457 1458 1459 1460 1461 1461 1462 1463 1463 1464 1464 1465 1466 1466 1467 1468 1469 1469 1470 1470 1470 1471 1471 1471 1471 1471 1471 1471 1471 1471 1471 1471 1470 1470 1470 1470 1470 1470 1470 1470 1470 1469 1469 1469 1469 1469 1469 1468 1468 1468 1467 1467 1467 1466 1466 1466 1466 1466 1466
1436 1436 1436 1437 1438 1439 1439 1439 1440 1441 1442 1443 1445 1446 1447 1448 1449 1450 1451 1451 1452 1453 1453 1453 1454 1454 1455 1456 1456 1457 1459 1459 1460 1460 1461 1461 1462 1462 1463 1463 1464 1465 1466 1466 1467 1467 1467 1467 1468 1468 1468 1468 1468 1468 1468 1468 1468 1468 1468 1468 1468 1467 1467 1467 1467 1467 1467 1467 1467 1467 1467 1467 1466 1466 1466 1466 1466 1465 1465 1465 1465 1464 1464 1464 1464 1463
1433 1434 1434 1435 1436 1436 1436 1437 1438 1439 1440 1441 1442 1443 1444 1445 1446 1447 1448 1449 1450 1451 1451 1451 1451 1452 1454 1454 1455 1455 1456 1457 1457 1458 1458 1459 1460 1460 1461 1461 1462 1462 1463 1464 1465 1465 1464 1465 1465 1465 1466 1465 1465 1466 1466 1466 1466 1466 1466 1466 1465 1465 1465 1465 1465 1465 1465 1465 1465 1465 1465 1465 1464 1464 1464 1464 1463 1463 1463 1463 1462 1462 1462 1462 1461 1461
1431 1431 1432 1433 1434 1434 1434 1436 1437 1438 1438 1439 1440 1440 1441 1442 1443 1444 1446 1447 1448 1449 1449 1449 1450 1451 1452 1452 1453 1453 1454 1455 1455 1456 1456 1457 1457 1458 1459 1459 1460 1460 1461 1462 1462 1462 1462 1462 1462 1463 1463 1463 1463 1463 1463 1463 1463 1463 1463 1463 1463 1463 1463 1463 1463 1463 1463 1463 1463 1463 1463 1462 1462 1462 1462 1461 1461 1461 1461 1461 1461 1460 1460 1460 1460 1459
1429 1429 1431 1431 1432 1432 1433 1434 1435 1436 1436 1436 1437 1437 1439 1440 1441 1442 1444 1445 1446 1447 1447 1448 1449 1450 1450 1450 1451 1451 1452 1453 1453 1454 1455 1455 1455 1456 1457 1457 1457 1458 1459 1460 1460 1460 1460 1460 1460 1460 1461 1460 1461 1461 1461 1461 1461 1461 1461 1461 1461 1461 1461 1461 1461 1461 1461 1461 1461 1461 1461 1460 1460 1460 1460 1459 1459 1459 1459 1459 1459 1458 1458 1458 1458 1457
1427 1428 1429 1429 1430 1431 1431 1432 1433 1433 1433 1434 1435 1436 1437 1438 1439 1441 1442 1443 1444 1445 1446 1447 1447 1447 1447 1447 1448 1449 1449 1451 1451 1452 1452 1453 1453 1454 1455 1455 1455 1455 1456 1457 1458 1458 1457 1457 1457 1458 1458 1458 1458 1459 1459 1459 1460 1460 1459 1459 1459 1459 1459 1459 1459 1459 1459 1459 1459 1459 1458 1458 1458 1458 1458 1457 1457 1457 1457 1457 1457 1456 1456 1456 1456 1456
1425 1426 1426 1427 1428 1428 1429 1430 1431 1431 1431 1432 1433 1434 1435 1436 1437 1439 1440 1441 1442 1443 1444 1444 1444 1444 1444 1445 1446 1446 1447 1448 1449 1450 1450 1451 1452 1452 1452 1453 1453 1453 1454 1455 1456 1456 1455 1455 1455 1456 1456 1456 1456 1456 1457 1457 1458 1458 1457 1457 1457 1457 1457 1457 1457 1457 1457 1457 1457 1457 1456 1456 1456 1456 1456 1456 1456 1456 1456 1455 1455 1455 1455 1454 1454 1454
1422 1423 1424 1425 1426 1426 1427 1427 1428 1429 1429 1430 1431 1432 1433 1434 1435 1436 1437 1438 1439 1440 1441 1441 1441 1441 1442 1443 1443 1444 1445 1446 1447 1448 1448 1449 1450 1450 1450 1451 1451 1451 1451 1452 1453 1453 1453 1452 1452 1453 1453 1454 1454 1454 1455 1455 1456 1456 1456 1456 1456 1455 1455 1455 1455 1455 1455 1455 1455 1455 1455 1455 1455 1454 1454 1454 1454 1454 1454 1454 1453 1453 1453 1452 1452 1451
1420 1421 1421 1422 1423 1423 1424 1425 1426 1426 1427 1428 1429 1430 1431 1431 1433 1433 1434 1435 1436 1437 1438 1438 1439 1439 1440 1440 1441 1441 1443 1444 1445 1446 1447 1448 1448 1448 1448 1449 1449 1449 1449 1450 1451 1451 1451 1451 1450 1451 1451 1451 1452 1452 1452 1453 1453 1453 1454 1454 1454 1453 1453 1453 1453 1453 1453 1453 1453 1453 1453 1453 1453 1453 1453 1453 1452 1452 1452 1452 1452 1451 1451 1451 1450 1450
1417 1418 1419 1419 1420 1421 1421 1422 1423 1424 1425 1426 1426 1427 1428 1429 1430 1431 1431 1432 1434 1435 1435 1436 1436 1437 1438 1438 1438 1439 1441 1442 1443 1444 1445 1446 1446 1446 1446 1447 1447 1447 1447 1447 1448 1449 1449 1449 1449 1449 1449 1449 1450 1451 1451 1451 1451 1451 1452 1452 1452 1452 1451 1451 1451 1451 1451 1451 1451 1451 1451 1451 1451 1451 1451 1451 1451 1451 1451 1451 1450 1450 1450 1449 1449 1448
1415 1415 1416 1417 1417 1418 1419 1420 1421 1422 1423 1423 1424 1425 1426 1426 1427 1428 1429 1431 1432 1433 1433 1433 1434 1435 1436 1436 1437 1438 1439 1439 1440 1441 1443 1443 1443 1443 1445 1445 1445 1445 1445 1446 1446 1446 1446 1447 1447 1447 1447 1447 1448 1449 1449 1449 1449 1449 1450 1450 1450 1450 1450 1450 1450 1450 1450 1450 1450 1450 1450 1450 1450 1450 1450 1450 1449 1449 1449 1449 1449 1448 1448 1447 1447 1446
1411 1412 1413 1414 1415 1416 1416 1417 1418 1419 1420 1421 1421 1422 1423 1424 1425 1426 1427 1429 1430 1430 1431 1431 1432 1433 1434 1435 1435 1436 1435 1436 1437 1439 1440 1441 1441 1441 1443 1443 1443 1442 1443 1444 1444 1444 1444 1444 1445 1446 1446 1446 1446 1447 1447 1447 1447 1448 1448 1449 1449 1449 1448 1448 1448 1448 1448 1448 1448 1448 1448 1448 1448 1448 1448 1448 1448 1448 1448 1447 1447 1447 1446 1446 1445 1445
1409 1410 1411 1411 1412 1413 1413 1414 1416 1417 1418 1418 1419 1420 1421 1422 1423 1424 1425 1426 1427 1428 1428 1429 1430 1431 1432 1432 1432 1432 1431 1433 1435 1437 1438 1438 1438 1439 1441 1441 1440 1440 1441 1442 1442 1442 1442 1442 1443 1444 1444 1444 1444 1445 1445 1446 1446 1446 1447 1447 1447 1447 1447 1447 1447 1446 1446 1446 1446 1446 1446 1446 1446 1446 1446 1446 1446 1446 1446 1446 1446 1445 1445 1444 1443 1443
1406 1407 1408 1409 1410 1410 1411 1412 1413 1414 1415 1416 1416 1417 1418 1419 1421 1421 1422 1423 1424 1426 1426 1427 1428 1429 1429 1430 1429 1429 1429 1431 1433 1434 1435 1436 1436 1437 1438 1439 1438 1438 1438 1439 1440 1441 1441 1440 1441 1441 1442 1442 1442 1443 1443 1444 1445 1445 1445 1445 1446 1446 1446 1445 1445 1445 1445 1445 1445 1445 1445 1445 1445 1445 1445 1445 1445 1445 1445 1445 1444 1444 1443 1442 1442 1441
1404 1405 1406 1407 1407 1408 1408 1409 1410 1411 1412 1413 1414 1415 1416 1417 1418 1419 1420 1421 1422 1423 1424 1425 1426 1426 1427 1427 1427 1428 1428 1429 1431 1431 1433 1433 1434 1434 1435 1436 1436 1436 1436 1437 1437 1438 1439 1438 1439 1439 1440 1440 1441 1441 1441 1442 1443 1443 1443 1444 1444 1444 1444 1444 1443 1443 1443 1443 1443 1443 1443 1443 1443 1444 1444 1444 1444 1444 1443 1443 1443 1442 1441 1441 1440 1440
1401 1402 1403 1404 1405 1405 1406 1406 1408 1409 1410 1411 1411 1412 1413 1415 1416 1416 1417 1418 1420 1421 1422 1423 1424 1424 1425 1426 1426 1426 1427 1427 1428 1429 1430 1431 1431 1432 1432 1433 1434 1434 1434 1435 1435 1436 1436 1436 1437 1437 1438 1438 1439 1440 1440 1440 1441 1441 1442 1442 1442 1442 1442 1442 1442 1442 1442 1442 1442 1442 1442 1442 1442 1442 1442 1442 1442 1442 1442 1442 1441 1441 1440 1439 1439 1438
1399 1400 1400 1401 1402 1402 1403 1404 1405 1406 1407 1408 1409 1410 1411 1412 1413 1414 1415 1416 1417 1418 1420 1421 1421 1422 1423 1424 1424 1424 1425 1425 1426 1426 1427 1428 1429 1430 1430 1431 1431 1432 1432 1432 1433 1434 1435 1435 1435 1436 1436 1436 1437 1438 1438 1439 1439 1439 1440 1440 1440 1440 1440 1440 1440 1440 1440 1440 1441 1441 1441 1441 1441 1441 1441 1441 1441 1441 1440 1440 1440 1439 1439 1438 1437 1436
1396 1396 1397 1398 1399 1399 1400 1401 1402 1403 1404 1406 1406 1408 1409 1410 1411 1412 1413 1414 1415 1416 1417 1418 1420 1421 1421 1422 1422 1423 1423 1423 1424 1424 1425 1426 1427 1428 1428 1429 1429 1430 1431 1431 1431 1432 1433 1433 1434 1434 1435 1435 1436 1436 1436 1437 1437 1437 1438 1438 1438 1438 1438 1439 1439 1439 1439 1439 1439 1439 1439 1439 1439 1439 1439 1439 1439 1439 1439 1438 1438 1438 1437 1436 1436 1435
1393 1393 1394 1395 1396 1396 1397 1398 1399 1400 1401 1403 1404 1406 1407 1408 1409 1410 1411 1412 1414 1414 1415 1416 1417 1418 1419 1420 1421 1421 1421 1422 1422 1422 1423 1424 1425 1426 1426 1427 1427 1428 1429 1429 1429 1430 1431 1431 1432 1432 1433 1433 1434 1434 1435 1436 1436 1436 1436 1436 1436 1436 1436 1437 1437 1437 1437 1437 1437 1437 1437 1437 1437 1437 1437 1437 1437 1437 1437 1437 1436 1436 1435 1435 1434 1433
1390 1391 1391 1392 1393 1394 1395 1396 1396 1397 1399 1401 1402 1403 1405 1406 1407 1408 1409 1411 1411 1412 1413 1414 1415 1416 1417 1417 1418 1419 1419 1420 1420 1421 1421 1422 1423 1424 1425 1425 1426 1426 1427 1427 1428 1428 1429 1430 1430 1430 1431 1431 1432 1432 1433 1434 1434 1434 1434 1434 1435 1435 1435 1435 1435 1435 1435 1436 1436 1436 1436 1436 1436 1436 1435 1435 1435 1435 1435 1435 1435 1434 1433 1433 1432 1431
1387 1388 1388 1389 1390 1391 1392 1393 1394 1395 1397 1399 1400 1401 1403 1404 1405 1406 1407 1409 1410 1411 1411 1412 1413 1414 1415 1416 1416 1417 1417 1418 1418 1419 1420 1421 1421 1422 1423 1423 1424 1424 1425 1426 1426 1427 1427 1428 1428 1428 1429 1429 1430 1430 1431 1431 1432 1432 1432 1432 1433 1433 1433 1433 1433 1433 1433 1434 1434 1434 1434 1434 1434 1433 1433 1433 1433 1433 1433 1432 1432 1432 1431 1430 1430 1429
1384 1385 1386 1387 1388 1389 1390 1391 1392 1394 1396 1397 1398 1400 1401 1401 1403 1404 1405 1406 1407 1408 1409 1410 1411 1412 1413 1414 1414 1415 1415 1416 1416 1417 1418 1419 1420 1421 1421 1422 1422 1423 1424 1424 1425 1425 1426 1426 1426 1427 1427 1428 1428 1428 1429 1429 1430 1430 1430 1431 1431 1431 1431 1431 1431 1432 1432 1432 1432 1432 1432 1431 1431 1431 1431 1431 1431 1431 1430 1430 1430 1429 1429 1428 1427 1426
1382 1383 1384 1385 1386 1387 1388 1390 1391 1392 1394 1395 1396 1397 1398 1399 1400 1401 1403 1404 1405 1406 1407 1408 1409 1410 1411 1412 1413 1413 1414 1414 1415 1416 1416 1417 1418 1419 1420 1421 1421 1421 1422 1423 1423 1424 1424 1425 1425 1426 1426 1426 1426 1427 1427 1427 1428 1428 1428 1428 1429 1429 1430 1430 1431 1431 1431 1431 1431 1430 1430 1430 1429 1429 1429 1428 1428 1428 1428 1427 1427 1426 1426 1426 1425 1424
1380 1381 1382 1383 1385 1386 1387 1388 1390 1391 1392 1393 1394 1395 1395 1396 1397 1398 1400 1401 1402 1403 1404 1406 1406 1408 1409 1410 1411 1411 1412 1413 1413 1414 1415 1416 1416 1417 1418 1419 1419 1420 1421 1421 1422 1422 1423 1423 1424 1424 1424 1425 1425 1425 1425 1426 1426 1426 1426 1426 1426 1427 1427 1428 1429 1429 1429 1429 1428 1428 1428 1427 1427 1426 1426 1426 1426 1426 1426 1425 1425 1424 1424 1423 1422 1422
1378 1379 1380 1382 1383 1384 1385 1386 1387 1388 1389 1391 1391 1392 1393 1394 1395 1396 1397 1398 1400 1401 1402 1403 1404 1405 1406 1407 1409 1410 1410 1411 1411 1412 1413 1414 1415 1416 1416 1417 1417 1418 1419 1419 1420 1420 1421 1421 1422 1422 1423 1423 1423 1423 1423 1423 1424 1424 1424 1424 1425 1425 1425 1426 1426 1427 1427 1426 1426 1426 1426 1425 1425 1424 1424 1424 1423 1423 1423 1423 1423 1422 1422 1421 1421 1420
1376 1378 1379 1380 1381 1382 1383 1384 1385 1386 1387 1388 1389 1390 1391 1392 1393 1394 1395 1396 1397 1399 1400 1401 1402 1404 1405 1406 1406 1408 1408 1409 1410 1411 1411 1412 1413 1414 1415 1415 1416 1416 1417 1417 1418 1418 1419 1420 1420 1420 1421 1421 1421 1421 1421 1421 1422 1422 1422 1422 1423 1423 1423 1424 1424 1425 1425 1424 1424 1424 1423 1423 1422 1422 1421 1421 1421 1421 1421 1421 1421 1420 1420 1419 1419 1418
1375 1376 1377 1378 1379 1380 1381 1381 1382 1383 1384 1385 1386 1387 1389 1390 1391 1391 1392 1393 1395 1396 1398 1399 1400 1402 1403 1403 1404 1406 1406 1407 1408 1409 1409 1410 1411 1412 1413 1413 1414 1414 1415 1416 1416 1417 1417 1418 1418 1419 1420 1420 1420 1420 1420 1420 1420 1420 1420 1421 1421 1421 1421 1422 1422 1422 1422 1422 1422 1421 1421 1421 1420 1420 1419 1419 1419 1419 1419 1419 1418 1418 1418 1417 1417 1416
1373 1374 1375 1376 1376 1377 1378 1378 1380 1381 1382 1383 1384 1386 1386 1388 1389 1389 1390 1391 1393 1394 1395 1396 1398 1399 1400 1401 1402 1403 1404 1405 1406 1407 1407 1408 1409 1410 1411 1411 1412 1413 1413 1414 1415 1415 1416 1416 1417 1417 1418 1418 1418 1417 1417 1418 1418 1418 1418 1419 1419 1420 1420 1420 1420 1420 1420 1420 1419 1419 1419 1418 1418 1417 1417 1416 1416 1416 1416 1416 1416 1416 1416 1415 1415 1414
1371 1371 1372 1373 1374 1375 1375 1376 1378 1379 1380 1381 1382 1383 1384 1386 1386 1387 1388 1390 1391 1392 1393 1394 1396 1396 1397 1398 1399 1400 1401 1402 1403 1404 1406 1406 1407 1408 1409 1410 1411 1411 1412 1413 1413 1414 1415 1415 1416 1416 1416 1416 1416 1416 1416 1416 1416 1416 1416 1417 1417 1417 1417 1417 1418 1418 1418 1417 1417 1417 1416 1416 1416 1415 1414 1414 1414 1414 1414 1414 1414 1414 1413 1413 1412 1411
1368 1369 1370 1371 1372 1373 1373 1374 1375 1376 1377 1378 1380 1381 1382 1383 1384 1386 1386 1387 1389 1390 1391 1392 1393 1394 1395 1396 1397 1398 1399 1400 1401 1402 1403 1405 1406 1407 1408 1409 1410 1410 1411 1411 1412 1413 1413 1413 1414 1414 1414 1415 1414 1414 1414 1414 1415 1415 1415 1415 1416 1416 1416 1415 1416 1416 1416 1415 1415 1415 1414 1414 1413 1413 1412 1412 1411 1411 1411 1411 1412 1412 1411 1411 1410 1409
1366 1367 1368 1369 1370 1371 1371 1372 1373 1374 1375 1376 1378 1379 1380 1381 1382 1383 1384 1386 1387 1388 1389 1390 1391 1392 1393 1394 1395 1396 1397 1398 1399 1400 1401 1403 1404 1405 1406 1407 1408 1409 1410 1410 1411 1411 1411 1412 1412 1412 1412 1413 1413 1412 1412 1413 1413 1413 1413 1413 1414 1414 1414 1414 1414 1414 1414 1413 1413 1413 1412 1412 1411 1411 1411 1410 1409 1408 1409 1409 1409 1409 1409 1409 1408 1407
1364 1365 1366 1367 1368 1368 1369 1370 1371 1371 1373 1374 1376 1377 1378 1380 1381 1382 1383 1384 1385 1386 1387 1388 1389 1390 1391 1392 1393 1394 1395 1396 1397 1398 1399 1401 1402 1403 1405 1406 1407 1407 1408 1409 1409 1410 1410 1410 1410 1410 1411 1411 1411 1411 1411 1411 1411 1412 1412 1411 1412 1412 1412 1412 1412 1412 1412 1411 1411 1411 1411 1410 1410 1409 1409 1408 1407 1406 1406 1406 1406 1407 1407 1407 1406 1405
1362 1363 1364 1365 1366 1366 1367 1368 1369 1370 1371 1372 1373 1375 1376 1378 1379 1380 1381 1382 1383 1384 1385 1386 1387 1388 1389 1390 1391 1392 1393 1394 1395 1396 1397 1399 1400 1401 1403 1404 1405 1406 1406 1407 1407 1408 1408 1409 1409 1408 1409 1409 1409 1409 1410 1410 1410 1410 1410 1410 1410 1411 1411 1410 1410 1410 1410 1410 1409 1409 1409 1408 1408 1407 1407 1406 1406 1404 1403 1403 1404 1404 1405 1404 1404 1403